User: anonymous   Login
Location: Unspecified
(0.0000°N, 0.0000°E)
Time: 06:01:33
(UTC+00:00)
Language:

Meteor 3-2 - Orbit

View from above orbital plane
View from above orbital plane
View from above satellite
View from above satellite

Ground track
Ground track

The orbit data is extracted from the following two-line orbital elements,

1 19336U 88064A   18017.88824712 -.00000019  00000-0 -79768-4 0  9998
2 19336  82.5439 345.8525 0016471 331.6194  56.9216 13.17176499417417
Epoch (UTC): 17 January 2018 21:19:04
Eccentricity: 0.0016471
inclination: 82.5439°
perigee height: 1183 km
apogee height: 1208 km
right ascension of ascending node: 345.8525°
argument of perigee: 331.6194°
revolutions per day: 13.17176499
mean anomaly at epoch: 56.9216°
orbit number at epoch: 41741

The dashed part of the orbit path shows where the satellite is in the earth's shadow,  

DLR